User: anonymous   Login
Location: *
(33.8649°S, 62.1526°E)
Time: 07:44:04
(UTC+00:00)
Language:

Cosmos 1892 - Orbit

View from above orbital plane
View from above orbital plane
View from above satellite
View from above satellite

Ground track
Ground track

The orbit data is extracted from the following two-line orbital elements,

1 18421U 87088A   21101.75088133  .00000663  00000-0  31266-4 0  9994
2 18421  82.5009 338.2466 0016408 107.9042 252.3983 15.17559827829782
Epoch (UTC): 11 April 2021 18:01:16
Eccentricity: 0.0016408
inclination: 82.5009°
perigee height: 502 km
apogee height: 524 km
right ascension of ascending node: 338.2466°
argument of perigee: 107.9042°
revolutions per day: 15.17559827
mean anomaly at epoch: 252.3983°
orbit number at epoch: 82978

The dashed part of the orbit path shows where the satellite is in the earth's shadow,  

DLR